Location: Tauranga
(37.6860°S, 176.1670°E)
Time: 23:28:50
(UTC+13:00)

Cosmos 1844 Rocket - Pass Details

Date: 24 January 2019
Orbit: 824 x 845 km, 71.0° (Epoch: 17 February)

Event Time Altitude Azimuth Distance (km) Brightness Sun altitude
Rises 22:53:41 0° 196° (SSW) 3,406 7.0 -22.6°
Reaches altitude 10° 22:56:15 10° 189° (S) 2,469 5.9 -22.9°
Maximum altitude 23:01:40 44° 117° (ESE) 1,152 3.3 -23.6°
Enters shadow 23:02:34 41° 92° (E) 1,209 3.2 -23.7°
